www.pogodaiklimat.ru

Погода и климат >> Архив погоды >> Мексика >> Ejido Nuevo Leon


ПОГОДА в Ejido Nuevo Leon

  • Прогноз погоды в Ejido Nuevo Leon
  • Монитор погоды в Ejido Nuevo Leon
  • Климат города

АРХИВ ПОГОДЫ в Ejido Nuevo Leon

Время (UTC), дата Ветер
(напр.,м/с)
 
Видим.   Явления Облачность Т
(С)
Тd
(С)
f
(%)
Тe
(С)
Тes
(С)
Комфортность P
(гПа)
Po
(гПа)
Тmin
(С)
Tmax
(С)
R
(мм)
R24
(мм)
S
(см)
12 15.11 З 1 200 м ясно +14.2 +10.7 79 +15 +15 1013.4 1012.1 +13.6 +31.4
15 15.11 ЮЗ 1 10 км 4/0
[Ac trans]
+13.2 +10.7 85 +13 +14 1014.5 1013.1
18 15.11 С 2 10 км 4/0
[Ac trans]
+24.8 +9.1 37 +25 +30 комфорт 1015.5 1014.1 +12.9 +25.0
21 15.11 СЗ 2 10 км 6/0
[Ac trans]
+28.6 +13.9 41 +31 +35 жарко 1013.3 1012.0
00 16.11 С 1 10 км 4/0
[Ac trans]
+29.0 +15.2 43 +32 +32 душно 1012.4 1011.1 +12.9 +30.0
03 16.11 СВ 1 2000 м ясно +21.1 +15.6 71 +24 +24 комфорт 1013.2 1011.9
06 16.11 СЗ 1 2000 м ясно +18.1 +12.3 69 +19 +19 1014.1 1012.8 +12.9 +30.0
09 16.11 З 2 2000 м ясно +16.3 +12.4 78 +16 +16 1013.1 1011.8
12 16.11 С 1 2000 м ясно +13.3 +12.4 94 +13 +13 1012.6 1011.8 +13.3
15 16.11 С 1 10 км ясно +12.3 +10.7 90 +12 +12 1013.8 1012.4
18 16.11 В 1 10 км ясно +25.6 +12.8 45 +27 +35 жарко 1015.0 1013.6 +12.1 +30.0
21 16.11 СВ 2 10 км ясно +31.6 +14.8 36 +34 +40 душно 1012.1 1010.8
00 17.11 В 2 10 км ясно +32.0 +17.6 42 +36 +36 очень
душно
1011.3 1010.0 +12.3 +33.8
03 17.11 Ю 1 2000 м ясно +24.0 +16.7 64 +28 +28 душно 1012.2 1010.9
06 17.11 С 1 2000 м ясно +19.8 +14.0 69 +23 +23 комфорт 1012.9 1011.6 +12.3 +33.8
09 17.11 С 1 2000 м ясно +17.9 +12.4 70 +19 +19 1012.9 1011.6
12 17.11 В 1 2000 м ясно +15.8 +10.2 69 +17 +17 1012.7 1011.4 +14.6 +33.8
15 17.11 Ю 1 10 км ясно +15.8 +12.4 80 +16 +17 1014.3 1013.0
18 17.11 ЮВ 2 10 км 4/0
[Ac trans]
+25.2 +14.6 52 +28 +33 жарко 1016.1 1014.7 +14.8 +26.0
21 17.11 С 1 10 км 4/0
[Ac trans]
+31.2 +15.4 38 +34 +40 душно 1014.0 1012.7
00 18.11 С 2 10 км 5/0
[Ac trans]
+26.7 +12.8 42 +28 +29 жарко 1013.3 1012.0 +14.8 +30.4
03 18.11 ЮЗ 1 2000 м 5/0
[Ac trans]
+23.8 +16.1 62 +27 +27 жарко 1014.2 1012.9
06 18.11 СЗ 1 2000 м ясно +21.2 +14.9 67 +24 +24 комфорт 1015.3 1014.0 +19.3 +30.4
09 18.11 СЗ 2 2000 м ясно +18.0 +12.0 68 +19 +19 1016.9 1015.6
12 18.11 СЗ 2 2000 м ясно +15.2 +10.7 74 +15 +15 1018.0 1016.7 +14.8 +26.5
15 18.11 С 1 10 км ясно +13.6 +10.8 83 +14 +14 1020.9 1019.5
21 18.11 СЗ 3 10 км ясно +25.2 +5.1 27 +25 +30 комфорт 1019.8 1018.4
00 19.11 СЗ 4 10 км ясно +24.8 +7.1 32 +25 +25 комфорт 1018.5 1017.2 +12.3 +27.5
03 19.11 СЗ 2 2000 м ясно +17.8 +8.0 53 +18 +18 1019.4 1018.1
06 19.11 СЗ 1 2000 м ясно +14.8 +7.8 63 +15 +15 1019.9 1018.6 +12.3 +27.5
09 19.11 С 1 2000 м ясно +12.8 +5.8 62 +13 +13 1019.2 1017.9
12 19.11 СЗ 1 2000 м ясно +10.2 +3.5 63 +10 +10 1018.3 1016.9 +9.5 +25.1
15 19.11 СЗ 2 10 км ясно +9.6 +2.8 63 +8 +8 1018.8 1017.4
18 19.11 З 3 10 км ясно +20.3 +3.4 33 +21 +26 комфорт 1019.5 1018.1 +10.0 +21.5
21 19.11 СЗ 3 10 км ясно +24.5 +4.8 28 +24 +30 комфорт 1016.2 1014.8
00 20.11 СЗ 3 10 км ясно +24.1 +6.8 33 +24 +25 комфорт 1014.7 1013.4 +10.0 +25.5
03 20.11 З 1 200 м ясно +16.1 +9.1 63 +17 +17 1015.6 1014.3
06 20.11 С 1 200 м ясно +12.0 +13 +13 1015.9 1014.6 +10.0 +25.5
09 20.11 С 1 200 м ясно +9.7 +6.4 80 +9 +9 1015.3 1013.9
15 20.11 С 1 10 км 3/0
[Ac trans]
+7.3 +3.7 78 +7 +7 1017.2 1015.8
18 20.11 СЗ 2 10 км ясно +21.3 +6.1 37 +22 +28 комфорт 1017.5 1016.1 +6.4 +22.0
00 21.11 С 2 10 км ясно +26.0 +8.5 33 +26 +27 жарко 1014.3 1013.0 +6.4 +26.9
03 21.11 З 1 200 м ясно +18.8 +10.2 57 +21 +21 комфорт 1016.2 1014.9
06 21.11 СЗ 1 200 м ясно +14.3 +7.4 63 +15 +15 1017.7 1016.4 +6.4 +26.9
09 21.11 СЗ 2 200 м ясно +12.8 +7.1 68 +12 +12 1017.7 1016.4
12 21.11 СВ 1 200 м ясно +10.7 +6.2 74 +11 +11 1018.0 1016.6 +10.2 +26.9
15 21.11 С 1 10 км ясно +10.2 +5.8 74 +10 +10 1019.7 1018.3
18 21.11 СЗ 2 10 км ясно +23.0 +9.2 41 +24 +30 комфорт 1020.8 1019.4 +9.5 +24.2
21 21.11 СЗ 2 10 км ясно +28.4 +9.2 30 +28 +35 жарко 1018.7 1017.3
00 22.11 СЗ 2 10 км ясно +29.0 +10.2 31 +29 +30 жарко 1017.2 1015.9 +9.5 +29.8
03 22.11 С 1 2000 м ясно +20.7 +11.9 57 +24 +24 комфорт 1017.7 1016.4
06 22.11 З 1 2000 м ясно +15.8 +9.0 64 +17 +17 1018.2 1016.9 +9.5 +29.8

 

Местоположение метеостанции Ejido Nuevo Leon (Мексика): широта 32.40 долгота -115.10 высота над уровнем моря 11 м.

В архиве по умолчанию представлена погода в Ejido Nuevo Leon за последнюю неделю. Архивные данные за месяц целиком и за предыдущие месяцы, начиная с января 2011 года, Вы можете получить, выбрав интересующий диапазон дат из раскрывающегося списка и нажав кнопку "Ввод!".

Внимание! Время в таблицах - всемирное. Для получения местного времени необходимо прибавить поправку, которая в Ejido Nuevo Leon равна -8 ч.

Смотрите также архив погоды в соседних городах и на ближайших метеорологических станциях:

Погода в San Felipe (Мексика) (155 км)
Погода в Puerto Penasco (Мексика) (191 км)
Погода в Altar Son (Мексика) (362 км)
Погода в Hermosillo (Мексика) (534 км)
Погода в Hermosillo la Magna (Мексика) (542 км)
Погода в Pilares de Nacoz (Мексика) (562 км)
Погода в Santa Rosalia (Мексика) (632 км)
Погода в Guaymas (Мексика) (643 км)
Погода в Empalme (Мексика) (651 км)
Погода в Nueva Casas Grandes (Мексика) (720 км)

Пояснения к столбцам:

Ветер - указаны скорость ветра в м/с - средняя за 10 мин, порывы в срок и между сроками (в фигурных скобках) и направление, откуда дует ветер: С - северный, СВ - северо-восточный, В - восточный, ЮВ - юго-восточный, Ю - южный, ЮЗ - юго-западный, З - западный, СЗ - северо-западный.
Видимость - горизонтальная дальность видимости в метрах или километрах. При видимости от 1 до 10 км при отсутствии осадков обычно наблюдается дымка, при ухудшении видимости до 1 км и менее - туман. В сухую погоду видимость может ухудшаться дымом, пылью или мглою.
Явления - указаны атмосферные явления, наблюдавшиеся в срок или в последний час перед сроком; фигурными скобками обозначены явления, наблюдавшиеся между сроками (за 1-3 часа до срока); квадратными скобками обозначены град или гололедные отложения с указанием их диаметра в мм.
Облачность - указаны через наклонную черту общая и нижняя облачность в баллах и высота нижней границы облаков в метрах; квадратными скобками обозначены формы облаков: Ci - перистые, Cs - перисто-слоистые, Cc - перисто-кучевые, Ac - высококучевые, As - высокослоистые, Sc - слоисто-кучевые, Ns - слоисто-дождевые, Cu - кучевые, Cb - кучево-дождевые. Подробнее классификацию облаков см. в Атласе облаков (PDF).
T - Температура воздуха - температура, измеренная на высоте 2 м над землей.
Td - Температура точки росы - температура, при понижении до которой содержащийся в воздухе водяной пар достигнет насыщения.
f - Относительная влажность воздуха - влажноcть воздуха, измеренная на высоте 2 м над землей.
Te - Эффективная температура - температура, которую ощущает одетый по сезону человек в тени. Характеристика душности погоды. При расчете учитывается влияние влажности воздуха и скорости ветра на теплоощущения человека.
Tes - Эффективная температура на солнце - температура, которую ощущает человек, с поправкой на солнечный нагрев. Характеристика знойности погоды. Зависит от высоты солнца над горизонтом, облачности и скорости ветра. Ночью, в пасмурную погоду, а также при ветре 12 м/с и более поправка равна нулю.
P - Атмосферное давление - приведенное к уровню моря атмосферное давление.
Po - Атмосферное давление - измеренное на уровне метеостанции атмосферное давление.
Tmin - Минимальная температура - минимум температуры воздуха на высоте 2 м над землей.
Tmax - Максимальная температура - максимум температуры воздуха на высоте 2 м над землей.
R - Количество осадков - Количество выпавших осадков за период времени, мм. При наведении курсора мыши на число - период времени, за который выпало указанное количество осадков.
R24 - Количество осадков - Количество выпавших осадков за 24 часа, мм.
S - Снежный покров - Высота снежного покрова, см. При наведении курсора мыши на число - состояние снежного покрова и степень покрытия местности в баллах.